This demonstration page uses our WeatherBlox Daily Observations layout. Learn more.

Left ArrowRight Arrow

Hourly Observations for February 4, 2021

Temp ( °F °C ) Dew Point ( °F °C ) Humidity (%) Winds ( mph kmh ) Pressure ( in mb ) Visibility ( mi km ) Precip ( " mm )
12:15 am 00:15 Windy with Snow Likely 36 2.1 32 -0.2 85 85 N 26 43 29.74 1007 7 11 N/A
12:35 am 00:35 Windy with Snow Likely 34 1.1 32 undefined 92 92 N 26 43 29.75 1008 3 5 N/A
12:55 am 00:55 Cloudy with Light Snow 34 1 32 undefined 93 93 NNW 18 30 29.75 1008 2 3 N/A
1:15 am 01:15 Windy with Snow Likely 34 1 32 0.1 94 94 N 21 33 29.78 1009 1 2 N/A
3:20 am 03:20 undefined N/A N/A N/A undefined N/A N/A N/A N/A
4:15 am 04:15 Partly Cloudy with Isolated Snow Showers 29 -1.7 26 -3.5 88 88 N 20 31 29.87 1012 4 6 0.01 0.25
4:35 am 04:35 Mostly Cloudy with Light Wintry Mix 29 -1.6 25 -3.7 86 86 N 18 30 29.87 1011 5 8 0.01 0.25
4:55 am 04:55 Clear 29 -1.5 26 -3.6 86 86 NNW 17 28 29.88 1012 7 11 0.01 0.25
5:15 am 05:15 Clear 30 -1.3 26 -3.5 85 85 NNW 20 31 29.90 1012 7 11 N/A
5:35 am 05:35 Windy with Snow Likely 29 -1.6 24 -4.5 81 81 N 21 33 29.90 1013 4 6 N/A
5:55 am 05:55 Clear with Mist and Fog 28 -2 24 -4.5 83 83 NNW 22 35 29.90 1013 4 6 N/A
6:15 am 06:15 Hazy 28 -2.2 23 -4.9 82 82 NNW 21 33 29.92 1013 5 8 N/A
6:35 am 06:35 Hazy 28 -2.4 23 -5.2 81 81 NNW 23 37 29.94 1014 5 8 N/A
6:55 am 06:55 Hazy 27 -3 22 -5.6 82 82 NNW 21 33 29.95 1014 3 5 N/A
7:15 am 07:15 Clear 26 -3.2 22 -5.8 82 82 NNW 15 24 29.98 1015 7 11 N/A
7:35 am 07:35 Hazy 24 -4.5 19 -7 83 83 NNW 21 33 30.00 1016 3 4 N/A
7:55 am 07:55 Sunny 23 -4.8 19 -7.4 82 82 NNW 21 33 30.00 1016 7 11 N/A
8:15 am 08:15 Hazy 23 -4.9 19 -7.5 82 82 N 18 30 30.00 1016 5 8 N/A
8:35 am 08:35 Sunny 23 -4.9 18 -7.6 82 82 NNW 17 28 30.01 1016 10 16 N/A
8:55 am 08:55 Sunny 24 -4.6 19 -7.5 80 80 NNW 12 19 30.03 1017 10 16 N/A
9:15 am 09:15 Sunny 24 -4.5 19 -7.3 81 81 NNW 13 20 30.03 1017 10 16 N/A
9:35 am 09:35 Sunny 25 -4 19 -7 80 80 NNW 16 26 30.02 1017 10 16 N/A
9:55 am 09:55 Sunny 26 -3.6 19 -7 78 78 NNW 18 30 30.01 1016 10 16 N/A
10:15 am 10:15 Sunny 26 -3.3 19 -7 76 76 NNW 17 28 30.02 1016 10 16 N/A
10:35 am 10:35 Sunny 27 -3 19 -7 74 74 NNW 16 26 30.02 1017 10 16 N/A
10:55 am 10:55 Sunny 27 -2.6 19 -7 72 72 NNW 14 22 30.02 1017 10 16 N/A
11:15 am 11:15 Sunny 28 -2.2 20 -6.6 72 72 NNW 14 22 30.02 1016 10 16 N/A
11:35 am 11:35 Sunny 29 -1.7 20 -6.5 70 70 NNW 14 22 30.01 1016 10 16 N/A
11:55 am 11:55 Sunny 30 -1.3 20 -6.5 68 68 NNW 12 19 30.01 1016 10 16 N/A
12:15 pm 12:15 Sunny 30 -1 21 -6.2 68 68 NW 13 20 30.00 1016 10 16 N/A
12:35 pm 12:35 Sunny 31 -0.6 21 -6.1 67 67 NW 15 24 29.99 1016 10 16 N/A
12:55 pm 12:55 Sunny 32 -0.2 21 -6 65 65 NW 15 24 29.99 1015 10 16 0.01 0.25
1:15 pm 13:15 Sunny 32 undefined 21 -6 64 64 NW 14 22 29.97 1015 10 16 N/A
1:35 pm 13:35 Sunny 32 undefined 22 -5.3 68 68 NW 13 20 29.97 1015 10 16 N/A
1:55 pm 13:55 Sunny 32 0.2 22 -5.8 64 64 NW 14 22 29.96 1015 10 16 N/A
2:15 pm 14:15 Sunny 33 0.4 22 -5.3 66 66 NW 10 17 29.96 1015 10 16 N/A
2:35 pm 14:35 Sunny 33 0.6 23 -4.9 67 67 NW 12 19 29.95 1014 10 16 N/A
2:55 pm 14:55 Sunny 34 1 24 -4.7 66 66 NW 10 17 29.94 1014 10 16 N/A
3:15 pm 15:15 Sunny 34 1.1 23 -5 64 64 WNW 8 13 29.94 1014 10 16 N/A
3:35 pm 15:35 Sunny 34 1.3 24 -4.6 65 65 WNW 7 11 29.93 1014 10 16 N/A
3:55 pm 15:55 Sunny 34 1.2 24 -4.5 66 66 W 8 13 29.93 1014 10 16 N/A
4:15 pm 16:15 Sunny 34 1.2 24 -4.6 66 66 W 7 11 29.93 1014 10 16 N/A
4:35 pm 16:35 Sunny 34 1.1 24 -4.5 67 67 W 3 6 29.93 1014 10 16 N/A
4:55 pm 16:55 Sunny 34 1.2 24 -4.5 66 66 N N/A 29.93 1014 10 16 N/A
5:15 pm 17:15 Sunny 34 1.3 24 -4.2 67 67 N N/A 29.92 1013 10 16 N/A
5:35 pm 17:35 Sunny 32 0.2 25 -4 74 74 S 5 7 29.93 1014 10 16 N/A
5:55 pm 17:55 Sunny 32 undefined 25 -3.9 75 75 SSW 6 9 29.92 1013 10 16 N/A
6:35 pm 18:35 Cloudy 33 0.3 27 -2.6 81 81 SW 9 15 29.92 1013 10 16 N/A
6:55 pm 18:55 Mostly Cloudy 33 0.6 27 -2.8 78 78 SW 12 19 29.92 1013 10 16 N/A
7:15 pm 19:15 Partly Cloudy 34 1 26 -3.1 74 74 WSW 8 13 29.92 1013 10 16 N/A
7:35 pm 19:35 Partly Cloudy 35 1.5 26 -3.5 70 70 WSW 9 15 29.92 1013 10 16 N/A
7:55 pm 19:55 Clear 34 1 25 -3.8 71 71 WSW 8 13 29.92 1013 10 16 N/A
8:15 pm 20:15 Clear 33 0.8 24 -4.6 68 68 W 13 20 29.93 1013 10 16 N/A
8:35 pm 20:35 Clear 33 0.3 22 -5.3 66 66 W 12 19 29.94 1014 10 16 N/A
8:55 pm 20:55 Mostly Cloudy 33 0.5 23 -5.1 66 66 W 14 22 29.94 1014 10 16 N/A
9:15 pm 21:15 Partly Cloudy 33 0.6 23 -5 66 66 WNW 12 19 29.95 1014 10 16 N/A
9:35 pm 21:35 Clear 32 0.1 23 -5 69 69 WNW 12 19 29.95 1014 10 16 N/A
9:55 pm 21:55 Clear 32 -0.2 23 -5 70 70 WNW 10 17 29.96 1014 10 16 N/A
10:15 pm 22:15 Clear 30 -1.2 22 -5.3 74 74 W 10 17 29.97 1015 10 16 N/A
10:35 pm 22:35 Clear 29 -1.6 22 -5.7 74 74 W 9 15 29.97 1015 10 16 N/A
10:55 pm 22:55 Clear 28 -2.3 21 -6 76 76 W 9 15 29.98 1015 10 16 N/A
11:15 pm 23:15 Clear 28 -2.5 21 -6.1 77 77 W 8 13 29.98 1015 10 16 N/A
11:35 pm 23:35 Clear 26 -3.1 20 -6.7 76 76 W 8 13 29.98 1015 10 16 N/A
11:55 pm 23:55 Clear 27 -2.8 20 -6.7 75 75 W 9 15 29.97 1015 10 16 N/A

Powered by AerisWeather